Location: ???????
(54.9996°N, 37.9529°E)
Time: 04:14:26
(UTC+00:00)

Cosmos 2112 Rocket - Pass Details

Date: 14 April 2024
Orbit: 754 x 785 km, 74.0° (Epoch: 23 May)

Event Time Altitude Azimuth Distance (km) Brightness Sun altitude
Exits shadow 01:39:49 - 204° (SSW) 3,133 6.7 -7.0°
Reaches altitude 10° 01:41:52 10° 204° (SSW) 2,336 6.0 -6.8°
Maximum altitude 01:47:12 88° 117° (ESE) 794 4.1 -6.1°
Drops below altitude 10° 01:52:35 10° 28° (NNE) 2,358 7.4 -5.4°
Sets 01:54:59 0° 28° (NNE) 3,290 8.2 -5.1°
